Location: Lafig�re
(44.4503°N, 4.0357°E)
Time: 03:24:21
(UTC+00:00)

Transit 4A - Pass Details

Date: 28 January 2021
Orbit: 866 x 978 km, 66.8° (Epoch: 02 March)

Event Time Altitude Azimuth Distance (km) Brightness Sun altitude
Rises 18:15:02 0° 220° (SW) 3,662 11.8 -15.7°
Reaches altitude 10° 18:17:37 10° 224° (SW) 2,721 11.1 -16.1°
Maximum altitude 18:23:57 65° 305° (NW) 1,072 8.4 -17.2°
Drops below altitude 10° 18:30:17 10° 27° (NNE) 2,714 10.0 -18.3°
Enters shadow 18:30:24 10° 28° (NNE) 2,755 10.0 -18.4°
Sets 18:32:52 0° 31° (NNE) 3,652 - -18.8°
